Weather History for Jesup, GA

Change the Weather History Date:

Sunday, April 6, 2014

  Actual Average (KLHW) Record (KLHW)
Temperature  
Mean Temperature 64 °F -  
Max Temperature 68 °F 75 °F 91 °F (1967)
Min Temperature 59 °F 50 °F 36 °F (1975)
Degree Days  
Heating Degree Days 2    
Growing Degree Days 14 (Base 50)    
Moisture  
Dew Point 62 °F    
Average Humidity 99    
Maximum Humidity 100    
Minimum Humidity 88    
Precipitation  
Precipitation 0.00 in - - ()
Sea Level Pressure  
Sea Level Pressure 30.02 in    
Wind  
Wind Speed 3 mph (ENE)    
Max Wind Speed 9 mph    
Max Gust Speed -    
Visibility 7 miles    
Events Rain , Thunderstorm    
Averages and records for this station are not official NWS values.
T = Trace of Precipitation, MM = Missing Value Source: NWS Daily Summary

Daily Weather History Graph

Daily Weather History Graph

Search for Another Location

Airport:

Trip Planner

Search our weather history database for the weather conditions in past years. The results will help you decide how hot, cold, wet, or windy it might be!

Date:

Astronomy

Apr. 06, 2014 Rise Set
Actual Time 7:09 AM EDT 7:50 PM EDT
Civil Twilight 6:45 AM EDT 8:14 PM EDT
Nautical Twilight 6:16 AM EDT 8:43 PM EDT
Astronomical Twilight 5:46 AM EDT 9:13 PM EDT
Moon 12:21 PM EDT (4/6) 1:33 AM EDT (4/6)
Length of Visible Light 13h 29m
Length of Day
12h 40m
Waxing Crescent, 43% of the Moon is Illuminated
Apr 6
Waxing Crescent
Apr 7
First Quarter
Apr 15
Full
Apr 22
Last Quarter
Apr 29
New

Hourly Weather History & Observations

Time (EDT) Temp. Dew Point Humidity Pressure Visibility Wind Dir Wind Speed Gust Speed Precip Events Conditions
12:15 AM 68.0 °F 64.4 °F 88% 30.02 in 10.0 mi Calm Calm - N/A   Light Drizzle
12:35 AM 66.2 °F 64.4 °F 94% 30.01 in 10.0 mi Calm Calm - N/A   Mostly Cloudy
12:55 AM 66.2 °F 64.4 °F 94% 30.01 in 10.0 mi Calm Calm - N/A   Scattered Clouds
1:15 AM 64.4 °F 64.4 °F 100% 30.01 in 10.0 mi Calm Calm - N/A   Mostly Cloudy
1:35 AM 64.4 °F 64.4 °F 100% 30.01 in 10.0 mi WSW 4.6 mph - N/A   Scattered Clouds
1:55 AM 66.2 °F 64.4 °F 94% 30.01 in 10.0 mi West 5.8 mph - N/A   Scattered Clouds
2:15 AM 66.2 °F 64.4 °F 94% 30.02 in 10.0 mi WNW 3.5 mph - N/A Rain Light Rain
2:35 AM 64.4 °F 64.4 °F 100% 30.00 in 10.0 mi Calm Calm - N/A   Drizzle
2:55 AM 64.4 °F 64.4 °F 100% 29.99 in 10.0 mi Calm Calm - N/A   Overcast
3:15 AM 64.4 °F 64.4 °F 100% 29.98 in 7.0 mi SW 4.6 mph - N/A Rain Light Rain
3:35 AM 64.4 °F 64.4 °F 100% 29.98 in 10.0 mi Calm Calm - N/A   Mostly Cloudy
3:50 AM 64.4 °F 64.4 °F 100% 29.98 in 10.0 mi NW 3.5 mph - N/A   Overcast
4:15 AM 64.4 °F 64.4 °F 100% 29.98 in 7.0 mi Calm Calm - N/A   Drizzle
4:35 AM 64.4 °F 64.4 °F 100% 29.97 in 7.0 mi Calm Calm - N/A   Light Drizzle
4:55 AM 64.4 °F 64.4 °F 100% 29.97 in 5.0 mi Calm Calm - N/A Rain Light Rain
5:15 AM 64.4 °F 64.4 °F 100% 29.97 in 5.0 mi Calm Calm - N/A Rain Light Rain
5:35 AM 64.4 °F 64.4 °F 100% 29.97 in 7.0 mi Calm Calm - N/A Rain Rain
5:55 AM 64.4 °F 64.4 °F 100% 29.98 in 4.0 mi Calm Calm - N/A Rain Light Rain
6:15 AM 64.4 °F 64.4 °F 100% 29.98 in 4.0 mi Calm Calm - N/A   Light Drizzle
6:55 AM 62.6 °F 62.6 °F 100% 29.99 in 4.0 mi Calm Calm - N/A Rain Light Rain
7:15 AM 62.6 °F 62.6 °F 100% 29.99 in 4.0 mi Calm Calm - N/A Rain Rain
7:35 AM 64.4 °F 64.4 °F 100% 30.00 in 5.0 mi Calm Calm - N/A   Light Drizzle
7:55 AM 64.4 °F 64.4 °F 100% 30.01 in 7.0 mi Calm Calm - N/A   Overcast
8:15 AM 64.4 °F 64.4 °F 100% 30.01 in 5.0 mi Calm Calm - N/A Rain Light Rain
8:35 AM 64.4 °F 64.4 °F 100% 30.02 in 7.0 mi NNE 6.9 mph - N/A Rain Light Rain
8:55 AM 62.6 °F 62.6 °F 100% 30.02 in 10.0 mi NE 3.5 mph - N/A   Light Drizzle
9:15 AM 60.8 °F 60.8 °F 100% 30.02 in 7.0 mi NE 4.6 mph - N/A   Overcast
9:35 AM 60.8 °F 60.8 °F 100% 30.02 in 7.0 mi NE 3.5 mph - N/A   Overcast
9:55 AM 60.8 °F 60.8 °F 100% 30.02 in 5.0 mi NE 4.6 mph - N/A   Overcast
10:15 AM 60.8 °F 60.8 °F 100% 30.02 in 7.0 mi ENE 3.5 mph - N/A Rain Light Rain
10:35 AM 60.8 °F 60.8 °F 100% 30.04 in 10.0 mi NNE 4.6 mph - N/A Rain Rain
10:55 AM 60.8 °F 60.8 °F 100% 30.07 in 5.0 mi Calm Calm - N/A Rain Rain
11:15 AM 60.8 °F 60.8 °F 100% 30.06 in 3.0 mi NNE 4.6 mph - N/A Rain Heavy Rain
11:55 AM 60.8 °F 60.8 °F 100% 30.08 in 2.5 mi North 3.5 mph - N/A Rain , Thunderstorm Heavy Thunderstorms and Rain
12:15 PM 60.8 °F 60.8 °F 100% 30.08 in 3.0 mi Calm Calm - N/A Rain Light Rain
12:35 PM 60.8 °F 60.8 °F 100% 30.07 in 4.0 mi NE 4.6 mph - N/A Rain Rain
12:55 PM 60.8 °F 60.8 °F 100% 30.07 in 5.0 mi Calm Calm - N/A Rain Light Rain
1:15 PM 60.8 °F 60.8 °F 100% 30.07 in 5.0 mi NNE 4.6 mph - N/A   Overcast
1:35 PM 60.8 °F 60.8 °F 100% 30.06 in 5.0 mi ENE 5.8 mph - N/A   Overcast
1:55 PM 60.8 °F 60.8 °F 100% 30.06 in 7.0 mi NNE 5.8 mph - N/A   Overcast
2:15 PM 60.8 °F 60.8 °F 100% 30.06 in 7.0 mi NNE 8.1 mph - N/A   Overcast
2:35 PM 60.8 °F 60.8 °F 100% 30.06 in 5.0 mi North 5.8 mph - N/A   Overcast
2:55 PM 60.8 °F 60.8 °F 100% 30.07 in 3.0 mi NNE 4.6 mph - N/A Rain Heavy Rain
3:15 PM 59.0 °F 59.0 °F 100% 30.06 in 5.0 mi NE 4.6 mph - N/A Rain Rain
3:35 PM 60.8 °F 60.8 °F 100% 30.06 in 10.0 mi Calm Calm - N/A Rain Light Rain
3:55 PM 60.8 °F 60.8 °F 100% 30.06 in 5.0 mi NNE 4.6 mph - N/A Rain Light Rain
4:15 PM 60.8 °F 60.8 °F 100% 30.05 in 7.0 mi ENE 4.6 mph - N/A Rain Light Rain
4:35 PM 60.8 °F 60.8 °F 100% 30.04 in 10.0 mi ENE 3.5 mph - N/A   Light Drizzle
4:55 PM 60.8 °F 60.8 °F 100% 30.03 in 10.0 mi East 5.8 mph - N/A Rain Light Rain
5:15 PM 62.6 °F 62.6 °F 100% 30.02 in 10.0 mi East 6.9 mph - N/A   Overcast
5:35 PM 60.8 °F 60.8 °F 100% 30.01 in 10.0 mi East 6.9 mph - N/A   Overcast
5:55 PM 60.8 °F 60.8 °F 100% 30.01 in 10.0 mi ESE 6.9 mph - N/A   Overcast
6:15 PM 60.8 °F 60.8 °F 100% 30.00 in 10.0 mi East 5.8 mph - N/A   Overcast
6:35 PM 60.8 °F 60.8 °F 100% 30.00 in 10.0 mi ESE 9.2 mph - N/A   Overcast
6:55 PM 60.8 °F 60.8 °F 100% 29.99 in 10.0 mi ESE 9.2 mph - N/A   Overcast
7:15 PM 60.8 °F 60.8 °F 100% 29.99 in 10.0 mi ESE 6.9 mph - N/A   Overcast
7:35 PM 60.8 °F 60.8 °F 100% 29.99 in 7.0 mi SE 6.9 mph - N/A   Overcast
7:55 PM 59.0 °F 59.0 °F 100% 29.99 in 7.0 mi ESE 8.1 mph - N/A   Overcast
8:15 PM 59.0 °F 59.0 °F 100% 29.99 in 7.0 mi SSE 4.6 mph - N/A   Overcast
8:35 PM 59.0 °F 59.0 °F 100% 30.00 in 7.0 mi SE 4.6 mph - N/A   Overcast
8:50 PM 59.0 °F 59.0 °F 100% 30.00 in 5.0 mi ESE 6.9 mph - N/A   Overcast
9:10 PM 59.0 °F 59.0 °F 100% 30.00 in 5.0 mi ESE 8.1 mph - N/A   Overcast
9:35 PM 59.0 °F 59.0 °F 100% 30.00 in 4.0 mi ESE 9.2 mph - N/A   Overcast
9:55 PM 59.0 °F 59.0 °F 100% 30.00 in 4.0 mi ESE 8.1 mph - N/A   Overcast
10:15 PM 59.0 °F 59.0 °F 100% 30.01 in 4.0 mi ESE 5.8 mph - N/A   Overcast
10:35 PM 59.0 °F 59.0 °F 100% 30.02 in 3.0 mi ESE 5.8 mph - N/A   Overcast
10:55 PM 59.0 °F 59.0 °F 100% 30.02 in 2.5 mi ESE 5.8 mph - N/A   Overcast
11:15 PM 59.0 °F 59.0 °F 100% 30.00 in 1.5 mi ESE 5.8 mph - N/A   Overcast
11:35 PM 59.0 °F 59.0 °F 100% 30.00 in 1.2 mi East 5.8 mph - N/A   Overcast